STARLINK-33900 (63800 NORAD) Tracking and Keplerian Element Data

This shows tracking and keplerian element data for the satellite.

Feedback or suggestion? Click here.




ElementValue
Catalog63800
NameSTARLINK-33900
Epoch Orbit3684
Epoch Day354.11491365
Epoch Year2025
RAAN141.7956
Inclination43.0001
Eccentricity0.0002027
Argument of Perigee275.1354
Mean Anonmoly84.9266
Mean Motion15.27608038
Decay Rate0.00019255
L11 63800U 25091AB 25354.11491365 .00019255 00000+0 70679-3 0 9996
L22 63800 43.0001 141.7956 0002027 275.1354 84.9266 15.27608038 36844



Live tracking and technical data element details for STARLINK-33900 (NORAD 63800). STARLINK-33900 can be tracked NOW for your location showing map with azimuth and elevation plus other details from your city location.







IsCatalogInMostPopularTable: catalog: 63800, numindb: 6
Update: records affected: 1



GetName: 63800 STARLINK-33900

Hit Count: updated at: Tue, 21 Apr 2026 20:40:37 GMT